Regional Weather Roundup
Issued by NWS Cleveland, OH

Home | Current Version | Previous Version | Graphics & Text | Print | Product List | Glossary On
Versions: 1 2 3 4 5 6 7 8 9 10 11 12 13 14 15 16 17 18 19 20 21 22 23 24 25 26 27 28 29 30 31 32 33 34 35 36 37 38 39 40 41 42 43 44 45 46 47 48 49 50
000
ASUS41 KCLE 251700
RWRCLE
OHIO REGIONAL WEATHER ROUNDUP
NATIONAL WEATHER SERVICE WILMINGTON, OH
100 PM EDT SAT MAR 25 2017

NOTE: "FAIR" INDICATES FEW OR NO CLOUDS BELOW 12,000 FEET WITH NO
SIGNIFICANT WEATHER AND/OR OBSTRUCTIONS TO VISIBILITY.

OHZ001>008-015>018-024>027-034-035-043-044-251800-
   NORTHWEST OHIO

CITY           SKY/WX    TMP DP  RH WIND       PRES   REMARKS
DEFIANCE       CLOUDY    54  45  71 E14       30.13S
FINDLAY        FAIR      58  45  62 NE16      30.13R
TOLEDO EXPRESS PTSUNNY   46  40  79 E18       30.18R
TOLEDO EXEC    CLOUDY    46  41  82 NE14G29   30.20S
LIMA           FAIR      70  52  52 SW18G24   30.10F
$$

OHZ009>014-019>023-028>033-038-089-251800-
   NORTHEAST OHIO

CITY           SKY/WX    TMP DP  RH WIND       PRES   REMARKS
CLE-HOPKINS    PTSUNNY   44  37  76 NE14      30.22S
CLE-LAKEFRONT  CLOUDY    40  38  93 NE17      30.19S
CUY CO. ARPT   CLOUDY    46  41  81 NE13      30.20R
LORAIN-ELYRIA  CLOUDY    45  39  79 NE10      30.20R
ASHTABULA      CLOUDY    39  36  89 NE10G20   30.23F
AKRON-CANTON   PTSUNNY   66  49  54 SW9       30.17R
WOOSTER        NOT AVBL
MANSFIELD      CLOUDY    67  51  56 SW13G20   30.15S
YOUNGSTOWN     CLOUDY    66  50  56 W10       30.17R
$$

OHZ042-051>053-060>062-070>072-077>081-251800-
  SOUTHWEST OHIO

CITY           SKY/WX    TMP DP  RH WIND       PRES   REMARKS
CINC-COVINGTON PTSUNNY   71  51  49 SW13G20   30.10F
CINC-LUNKEN    FAIR      73  54  51 SW15G23   30.11F
HAMILTON       FAIR      73  52  47 S10G16    30.11F
DAYTON         NOT AVBL
WRIGHT-PAT AFB NOT AVBL
DAYTON GENERAL FAIR      68  50  52 SW10G20   30.10F
WILMINGTON     FAIR      68  51  54 SW15      30.12F
$$

OHZ036-037-039>041-045>050-054>059-063>069-073>076-082>088-251800-
  CENTRAL AND SOUTHEAST OHIO

CITY           SKY/WX    TMP DP  RH WIND       PRES   REMARKS
COLUMBUS       CLOUDY    73  51  46 SW13      30.14F
OSU AIRPORT    FAIR      71  52  50 SW14G21   30.14S
BOLTON FIELD   SUNNY     72  54  53 SW14G21   30.15S
RICKENBACK AFB NOT AVBL
NEWARK         FAIR      70  51  51 W16       30.14F
MARION         CLOUDY    71  51  49 SW8G17    30.14S
LANCASTER      PTSUNNY   74  51  44 SW12G18   30.16S
ZANESVILLE     FAIR      72  50  45 SW12      30.16F
NEW PHILLY     CLOUDY    70  51  51 W8        30.17S
$$




USA.gov is the U.S. government's official web portal to all federal, state and local government web resources and services.